Change the Weather History Date:

Monday, October 7, 2013

  Actual Average Record
Temperature  
Mean Temperature 62 °F -  
Max Temperature 73 °F 0 °F 86 °F (1997)
Min Temperature 50 °F - 28 °F (2001)
Degree Days  
Heating Degree Days 3    
Growing Degree Days 12 (Base 50)    
Moisture  
Dew Point 60 °F    
Average Humidity 83    
Maximum Humidity 94    
Minimum Humidity 69    
Precipitation  
Precipitation 0.93 in - - ()
Sea Level Pressure  
Sea Level Pressure 29.85 in    
Wind  
Wind Speed 8 mph (SW)    
Max Wind Speed 16 mph    
Max Gust Speed 28 mph    
Visibility 7 miles    
Events Rain    
Averages and records for this station are not official NWS values.
T = Trace of Precipitation, MM = Missing Value Source: NWS Daily Summary

Daily Weather History Graph

Daily Weather History Graph

Search for Another Location

Airport or City:

Trip Planner

Search our weather history database for the weather conditions in past years. The results will help you decide how hot, cold, wet, or windy it might be!

Date:

Astronomy

Oct. 07, 2013 Rise Set
Actual Time 7:09 AM EDT 6:39 PM EDT
Civil Twilight 6:42 AM EDT 7:06 PM EDT
Nautical Twilight 6:11 AM EDT 7:38 PM EDT
Astronomical Twilight 5:40 AM EDT 8:09 PM EDT
Moon 9:57 AM EDT (10/7) 8:23 PM EDT (10/7)
Length of Visible Light 12h 24m
Length of Day
11h 29m
Waxing Crescent, 8% of the Moon is Illuminated
Oct 7
Waxing Crescent
Oct 11
First Quarter
Oct 18
Full
Oct 26
Last Quarter
Nov 3
New

Hourly Weather History & Observations

Time (EDT) Temp. Dew Point Humidity Pressure Visibility Wind Dir Wind Speed Gust Speed Precip Events Conditions
12:53 AM 72.0 °F 66.0 °F 81% 29.92 in 10.0 mi SSE 8.1 mph - N/A   Scattered Clouds
1:53 AM 72.0 °F 66.0 °F 81% 29.91 in 10.0 mi Variable 4.6 mph - N/A   Partly Cloudy
2:20 AM 71.6 °F 64.4 °F 78% 29.90 in 10.0 mi SSE 6.9 mph - N/A   Mostly Cloudy
2:53 AM 72.0 °F 64.9 °F 78% 29.88 in 10.0 mi Variable 4.6 mph - N/A   Mostly Cloudy
3:53 AM 71.1 °F 64.9 °F 81% 29.86 in 10.0 mi Variable 5.8 mph - N/A   Mostly Cloudy
4:06 AM 71.6 °F 64.4 °F 78% 29.86 in 10.0 mi Variable 6.9 mph - N/A   Scattered Clouds
4:33 AM 71.6 °F 64.4 °F 78% 29.86 in 10.0 mi Variable 4.6 mph - N/A   Mostly Cloudy
4:53 AM 72.0 °F 64.9 °F 78% 29.86 in 10.0 mi South 6.9 mph 16.1 mph N/A   Overcast
5:53 AM 72.0 °F 64.9 °F 78% 29.84 in 10.0 mi Variable 5.8 mph - N/A   Overcast
6:53 AM 72.0 °F 64.9 °F 78% 29.83 in 10.0 mi SSE 10.4 mph - N/A   Overcast
7:53 AM 72.0 °F 64.9 °F 78% 29.81 in 10.0 mi Variable 4.6 mph - N/A   Overcast
8:53 AM 73.0 °F 66.0 °F 79% 29.78 in 10.0 mi SSE 9.2 mph 21.9 mph N/A   Mostly Cloudy
9:53 AM 73.0 °F 66.0 °F 79% 29.76 in 10.0 mi South 9.2 mph 23.0 mph N/A   Overcast
10:21 AM 73.4 °F 66.2 °F 78% 29.78 in 1.8 mi WSW 13.8 mph 21.9 mph 0.07 in Rain Rain
10:23 AM 71.6 °F 66.2 °F 83% 29.77 in 0.8 mi SW 12.7 mph 21.9 mph 0.16 in Rain Heavy Rain
10:33 AM 69.8 °F 66.2 °F 88% 29.77 in 1.2 mi SW 15.0 mph 25.3 mph 0.23 in Rain Heavy Rain
10:40 AM 69.8 °F 64.4 °F 83% 29.77 in 1.8 mi SSW 16.1 mph 26.5 mph 0.26 in Rain Rain
10:43 AM 69.8 °F 64.4 °F 83% 29.77 in 2.5 mi SSW 13.8 mph 26.5 mph 0.26 in Rain Light Rain
10:50 AM 68.0 °F 64.4 °F 88% 29.78 in 6.0 mi SW 11.5 mph 25.3 mph 0.27 in Rain Light Rain
10:53 AM 68.0 °F 64.0 °F 87% 29.78 in 3.0 mi SSW 16.1 mph 27.6 mph 0.29 in Rain Rain
10:56 AM 66.2 °F 64.4 °F 94% 29.76 in 2.0 mi SW 10.4 mph 27.6 mph 0.02 in Rain Heavy Rain
11:03 AM 66.2 °F 64.4 °F 94% 29.78 in 1.2 mi SSW 13.8 mph 21.9 mph 0.08 in Rain Heavy Rain
11:53 AM 66.9 °F 64.0 °F 90% 29.78 in 2.0 mi SSW 6.9 mph - 0.31 in Rain Rain
11:56 AM 66.2 °F 64.4 °F 94% 29.78 in 3.0 mi SSW 8.1 mph - 0.01 in Rain Rain
12:21 PM 66.2 °F 64.4 °F 94% 29.78 in 7.0 mi WSW 8.1 mph - 0.03 in Rain Light Rain
12:31 PM 66.2 °F 62.6 °F 88% 29.80 in 6.0 mi WSW 11.5 mph 17.3 mph 0.05 in Rain Rain
12:53 PM 64.0 °F 60.1 °F 87% 29.82 in 5.0 mi West 12.7 mph 21.9 mph 0.09 in Rain Rain
1:20 PM 62.6 °F 57.2 °F 82% 29.82 in 4.0 mi West 11.5 mph 18.4 mph 0.06 in Rain Rain
1:37 PM 60.8 °F 57.2 °F 88% 29.81 in 2.0 mi West 9.2 mph - 0.14 in Rain Heavy Rain
1:53 PM 60.1 °F 57.0 °F 90% 29.81 in 2.5 mi WNW 5.8 mph 16.1 mph 0.21 in Rain Heavy Rain
2:09 PM 60.8 °F 57.2 °F 88% 29.84 in 6.0 mi West 3.5 mph - 0.02 in Rain Light Rain
2:43 PM 60.8 °F 57.2 °F 88% 29.87 in 10.0 mi Calm Calm - 0.03 in Rain Light Rain
2:53 PM 60.1 °F 57.9 °F 93% 29.87 in 10.0 mi Calm Calm - 0.03 in Rain Light Rain
3:09 PM 60.8 °F 57.2 °F 88% 29.87 in 10.0 mi WSW 3.5 mph - 0.00 in   Overcast
3:53 PM 62.1 °F 55.9 °F 80% 29.88 in 10.0 mi SW 5.8 mph - 0.00 in   Overcast
4:53 PM 63.0 °F 55.9 °F 78% 29.90 in 10.0 mi West 3.5 mph - N/A   Clear
5:53 PM 62.1 °F 52.0 °F 70% 29.93 in 10.0 mi WNW 11.5 mph 17.3 mph N/A   Partly Cloudy
6:53 PM 59.0 °F 48.9 °F 69% 29.96 in 10.0 mi West 4.6 mph - N/A   Clear
7:53 PM 55.9 °F 50.0 °F 80% 29.99 in 10.0 mi Calm Calm - N/A   Clear
8:53 PM 54.0 °F 48.9 °F 83% 30.02 in 10.0 mi Calm Calm - N/A   Clear
9:53 PM 53.1 °F 46.9 °F 80% 30.04 in 10.0 mi West 3.5 mph - N/A   Clear
10:53 PM 51.1 °F 45.0 °F 80% 30.05 in 10.0 mi West 4.6 mph - N/A   Clear
11:53 PM 50.0 °F 44.1 °F 80% 30.06 in 10.0 mi West 5.8 mph - N/A   Clear